Location: Hiekkapohja
(62.3333°N, 25.7833°E)
Time: 00:47:28
(UTC+00:00)

GEOS 3 Rocket - Pass Details

Date: 07 August 2020
Orbit: 770 x 849 km, 115.0° (Epoch: 20 September)

Event Time Altitude Azimuth Distance (km) Brightness Sun altitude
Rises 00:29:15 0° 57° (ENE) 3,407 8.1 -7.5°
Reaches altitude 10° 00:31:38 10° 62° (ENE) 2,476 7.2 -7.3°
Maximum altitude 00:36:57 57° 141° (SE) 999 4.0 -7.0°
Drops below altitude 10° 00:42:17 10° 220° (SW) 2,475 5.5 -6.7°
Enters shadow 00:42:45 - 221° (SW) 2,659 5.6 -6.6°
